Starlink 32439

operational
NORAD ID: 61665 Int'l Des: 2024-193 Owner: SPXS Country: US Constellation: starlink
LEOCIRCULAR

关于 Starlink 32439

正在加载描述...

实时位置

正在加载3D地球...

即将过境

高度历史

Altitude vs Time

uPlot chart will show altitude changes over time

两行轨道根数

1 61665U 24193E 25259.17927340 -.00000415 00000-0 -18451-5 0 9995
2 61665 53.1591 181.9224 0002404 94.2162 265.9114 15.30181324 49808
Epoch: Sep 16, 2025 • Age: 9 hours

当前状态

高度 489.6 km
速度 7.62 km/s
星下点 -39.42°S, 55.58°W
发射日期 Oct 26, 2024
运行时间 0.8 years
类型 internet

技术详情

分类 Payload
质量 730.00 kg
干质量 700.00 kg
总质量 730.00 kg
长度 0.30 m
直径 4.10 m
跨度 29.00 m
形状 Box + pan
制造商 SPXS
平台类型 Starlink V2M
阶段状态 In Orbit
所有者/国家 SPXS/US

大型星座

Loading constellations...